Hourly Data Report for November 07, 2020

OTTAWA INTL A
ONTARIO
Current Station Operator: NAVCAN

45°19'00.000" N
75°40'00.000" W
114.90 m
6106001
71628
YOW

Download Data

Hourly Data (November 2020)
Hourly Data Report for November 7, 2020
TIME Temp Definition
°C
Dew Point Definition
°C
Rel Hum Definition
%
Wind Dir Definition
10's deg

Wind Spd Definition
km/h
Visibility Definition
km
Stn Press Definition
kPa
Hmdx Definition


Wind Chill Definition


Weather Definition


00:00 11.4 8.4 81 21 14 24.1 100.44     LegendNANA
01:00 10.9 8.2 83 22 11 24.1 100.48     Mainly Clear
02:00 10.3 7.8 85 22 10 24.1 100.55     LegendNANA
03:00 9.7 7.8 88 20 13 24.1 100.58     LegendNANA
04:00 9.0 7.6 91 21 14 24.1 100.61     Mainly Clear
05:00 8.8 7.4 91 20 11 24.1 100.62     LegendNANA
06:00 8.7 7.6 93 20 13 24.1 100.64     LegendNANA
07:00 8.9 7.7 92 19 16 12.9 100.67     Mostly Cloudy
08:00 9.9 8.2 89 19 16 12.9 100.72     LegendNANA
09:00 12.3 8.8 79 21 16 16.1 100.70     LegendNANA
10:00 14.6 9.5 71 20 18 24.1 100.69     Mostly Cloudy
11:00 17.0 9.9 63 22 17 24.1 100.69     LegendNANA
12:00 18.4 10.2 59 23 18 24.1 100.62     LegendNANA
13:00 20.2 10.8 54 22 17 24.1 100.59     Mostly Cloudy
14:00 20.3 10.6 53 22 22 24.1 100.54     LegendNANA
15:00 19.9 10.6 54 21 21 24.1 100.52     LegendNANA
16:00 18.6 10.5 59 21 17 24.1 100.57     Mostly Cloudy
17:00 16.8 10.3 65 19 15 24.1 100.58     LegendNANA
18:00 15.3 9.7 69 18 13 24.1 100.65     LegendNANA
19:00 14.3 9.3 72 21 14 24.1 100.67     Mostly Cloudy
20:00 14.4 8.9 70 22 14 24.1 100.72     LegendNANA
21:00 13.6 8.6 72 21 11 24.1 100.77     LegendNANA
22:00 12.8 8.3 74 21 11 24.1 100.82     Mainly Clear
23:00 12.4 8.2 75 20 8 24.1 100.84     LegendNANA

Notes on Data Quality.

Legend

  • E = Estimated
  • M = Missing
  • NA = Not Available*
  • [empty] = Indicates an unobserved value
Date modified: